Flag for U.S.A. Weather past 2 weeks in Helena, Montana, U.S.A.

Now
60 °F

Overcast.


Feels Like: 60 °F
Forecast: 46 / 65 °F
Wind: 12 mph from North

Location: Helena Regional Airport

Current Time: May 24, 2015 at 2:30:06 PM

Latest Report: May 24, 2015 at 1:53 PM


Visibility: 10 mi

Pressure: 30.05 "Hg

Humidity: 49%

Dew point: 41 °F

Location of HelenaLocation

Historic Weather in Helena — Graph

°F

Helena temperature yesterday

Maximum temperature yesterday: 58 °F (at 11:53 AM)
Minimum temperature yesterday: 51 °F (at 1:53 AM)
Average temperature yesterday: 54 °F

Past Weeks' High & Low Weather Summary

 TemperatureHumidityPressure
High72 °F (May 22, 1:53 PM)90% (May 14, 5:53 PM)30.43 "Hg (May 14, 5:53 PM)
Low31 °F (May 10, 5:53 AM)10% (May 10, 4:53 PM)29.69 "Hg (May 16, 10:00 AM)
Average51 °F61%30.05 "Hg
* Reported May 9 12:53 PM — May 24 12:53 PM, Helena, Weather by CustomWeather, © 2015

Note: Actual official high and low records may vary slightly from our data, if they occured in-between our weather recording intervals... More about our weather records

Advertising

Helena weather history for previous 24 hours

 ConditionsComfort  
Time TempWeatherWind HumidityBarometerVisibility
12:53 PM
Sun, May 24
60 °FOvercast.13 mph52%30.06 "Hg10 mi
11:53 AM59 °FOvercast.9 mph54%30.06 "Hg10 mi
10:53 AM59 °FPartly sunny.8 mph56%30.06 "Hg10 mi
9:53 AM58 °FOvercast.5 mph62%30.07 "Hg10 mi
8:53 AM54 °FOvercast.6 mph72%30.09 "Hg10 mi
7:53 AM53 °FOvercast.5 mph74%30.10 "Hg10 mi
6:53 AM51 °FPartly sunny.6 mph80%30.09 "Hg10 mi
5:53 AM50 °FOvercast.6 mph80%30.10 "Hg10 mi
4:53 AM48 °FPassing clouds.6 mph83%30.10 "Hg10 mi
3:53 AM49 °FClear.6 mph80%30.10 "Hg10 mi
2:53 AM51 °FPassing clouds.9 mph77%30.10 "Hg10 mi
1:53 AM51 °FOvercast.7 mph77%30.11 "Hg10 mi
12:53 AM51 °FOvercast.6 mph77%30.12 "Hg10 mi
11:53 PM
Sat, May 23
51 °FOvercast.7 mph80%30.11 "Hg10 mi
10:53 PM52 °FOvercast.8 mph80%30.12 "Hg10 mi
9:53 PM53 °FMostly cloudy.7 mph77%30.12 "Hg10 mi
8:53 PM54 °FMostly cloudy.6 mph77%30.11 "Hg10 mi
7:53 PM55 °FMostly cloudy.7 mph72%30.10 "Hg10 mi
6:53 PM55 °FMostly cloudy.9 mph74%30.09 "Hg10 mi
5:53 PM55 °FLight rain. Overcast.13 mph80%30.10 "Hg9 mi
4:53 PM56 °FOvercast.12 mph77%30.09 "Hg10 mi
3:53 PM54 °FLight rain. Overcast.13 mph83%30.10 "Hg10 mi
2:53 PM56 °FOvercast.10 mph77%30.09 "Hg10 mi
Weather by CustomWeather, © 2015

See weather overviewHow to use our weather pages